Duesseldorf, Germany

11:36 PM CET on February 08, 2016 (GMT +0100)
Duesseldorf

Weather History for 10400 - May, 2013

Change the Weather History Date:

Monday, May 6, 2013

  Actual Average Record
Temperature  
Mean Temperature 59 °F -  
Max Temperature 77 °F 66 °F - ()
Min Temperature 41 °F 48 °F - ()
Degree Days  
Heating Degree Days 6    
Growing Degree Days 9 (Base 50)    
Moisture  
Dew Point 43 °F    
Average Humidity 51    
Maximum Humidity 94    
Minimum Humidity 15    
Precipitation  
Precipitation 0.00 in - - ()
Sea Level Pressure  
Sea Level Pressure 30.09 in    
Wind  
Wind Speed 4 mph ()    
Max Wind Speed 10 mph    
Max Gust Speed -    
Visibility 9.7 miles    
Events      
T = Trace of Precipitation, MM = Missing Value Source: Averaged Metar Reports

Daily Weather History Graph

Daily Weather History Graph

Search for Another Location

Airport or City:

Trip Planner

Search our weather history database for the weather conditions in past years. The results will help you decide how hot, cold, wet, or windy it might be!

Date:

Astronomy

May. 06, 2013 Rise Set
Actual Time 5:56 AM CEST 9:03 PM CEST
Civil Twilight 5:17 AM CEST 9:43 PM CEST
Nautical Twilight 4:26 AM CEST 10:34 PM CEST
Astronomical Twilight 3:20 AM CEST 11:42 PM CEST
Moon 4:14 AM CEST (5/6) 5:27 PM CEST (5/6)
Length of Visible Light 16h 25m
Length of Day
15h 07m
Waning Crescent, 13% of the Moon is Illuminated
May 6
Waning Crescent
May 10
New
May 18
First Quarter
May 25
Full
May 31
Last Quarter

Hourly Weather History & Observations

Time (CEST) Temp. Windchill Dew Point Humidity Pressure Visibility Wind Dir Wind Speed Gust Speed Precip Events Conditions
12:00 AM 50 °F - 43 °F 70% 30.20 in 31 mi NNE 2.2 mph - -   Clear
12:20 AM 50.0 °F - 41.0 °F 71% 30.18 in - NNE 3.5 mph - N/A   Clear
12:50 AM 50.0 °F - 41.0 °F 71% 30.18 in - NNW 2.3 mph - N/A   Clear
1:00 AM 49 °F - 42 °F 69% 30.20 in 31 mi North 2.2 mph - -   Clear
1:20 AM 50.0 °F - 41.0 °F 71% 30.18 in - North 3.5 mph - N/A   Clear
1:50 AM 50.0 °F - 41.0 °F 71% 30.18 in - North 8.1 mph - N/A   Clear
2:00 AM 50 °F - 41 °F 62% 30.19 in 31 mi North 4.5 mph - -   Clear
2:20 AM 50.0 °F - 41.0 °F 71% 30.15 in - North 4.6 mph - N/A   Clear
2:50 AM 50.0 °F - 41.0 °F 71% 30.15 in - North 5.8 mph - N/A   Clear
3:00 AM 49 °F - 42 °F 67% 30.17 in 31 mi North 4.5 mph - -   Clear
3:20 AM 50.0 °F - 41.0 °F 71% 30.15 in - NNW 4.6 mph - N/A   Clear
3:50 AM 46.4 °F 45.2 °F 41.0 °F 81% 30.15 in - North 3.5 mph - N/A   Clear
4:00 AM 46 °F - 43 °F 85% 30.16 in 31 mi North 2.2 mph - -   Clear
4:20 AM 46.4 °F - 41.0 °F 81% 30.15 in - Variable 1.2 mph - N/A   Clear
4:50 AM 44.6 °F - 39.2 °F 81% 30.15 in - NNW 2.3 mph - N/A   Clear
5:20 AM 44.6 °F - 41.0 °F 87% 30.12 in - Variable 2.3 mph - N/A   Clear
5:50 AM 42.8 °F 40.1 °F 41.0 °F 93% 30.12 in - NE 4.6 mph - N/A   Clear
6:00 AM 43 °F - 42 °F 94% 30.15 in 25 mi East 2.2 mph - -   Scattered Clouds
6:20 AM 44.6 °F 43.1 °F 42.8 °F 93% 30.12 in - NE 3.5 mph - N/A   Clear
6:50 AM 46.4 °F 44.3 °F 42.8 °F 87% 30.15 in - NE 4.6 mph - N/A   Clear
7:00 AM 46 °F - 43 °F 84% 30.16 in 19 mi ENE 4.5 mph - -   Scattered Clouds
7:20 AM 48.2 °F - 44.6 °F 87% 30.15 in - Variable 3.5 mph - N/A   Clear
7:50 AM 51.8 °F - 46.4 °F 82% 30.15 in - SE 1.2 mph - N/A   Clear
8:00 AM 53 °F - 47 °F 75% 30.16 in 19 mi SE 2.2 mph - -  
8:20 AM 57.2 °F - 48.2 °F 72% 30.15 in - SSE 3.5 mph - N/A   Clear
8:50 AM 59.0 °F - 48.2 °F 67% 30.15 in - Variable 2.3 mph - N/A   Clear
9:00 AM 61 °F - 47 °F 49% 30.15 in 19 mi SSE 2.2 mph - -  
9:20 AM 62.6 °F - 48.2 °F 59% 30.12 in - Variable 1.2 mph - N/A   Clear
9:50 AM 64.4 °F - 48.2 °F 56% 30.12 in - SE 4.6 mph - N/A   Clear
10:00 AM 65 °F - 47 °F 42% 30.14 in 22 mi ENE 2.2 mph - -   Clear
10:20 AM 66.2 °F - 48.2 °F 52% 30.12 in - SE 5.8 mph - N/A   Clear
10:50 AM 68.0 °F - 48.2 °F 49% 30.12 in - SE 4.6 mph - N/A   Clear
11:20 AM 69.8 °F - 48.2 °F 46% 30.12 in 6.2 mi Variable 2.3 mph - N/A   Partly Cloudy
11:50 AM 71.6 °F - 48.2 °F 43% 30.12 in 6.2 mi West 4.6 mph - N/A   Partly Cloudy
12:00 PM 72 °F - 46 °F 28% 30.12 in 22 mi West 4.5 mph - -   Scattered Clouds
12:20 PM 73.4 °F - 48.2 °F 41% 30.09 in 6.2 mi Variable 2.3 mph - N/A   Partly Cloudy
12:50 PM 73.4 °F - 46.4 °F 38% 30.09 in - North 4.6 mph - N/A   Clear
1:00 PM 73 °F - 46 °F 27% 30.10 in 22 mi North 4.5 mph - -   Scattered Clouds
1:20 PM 71.6 °F - 48.2 °F 43% 30.09 in - NNW 5.8 mph - N/A   Clear
1:50 PM 75.2 °F - 42.8 °F 31% 30.06 in - NNW 5.8 mph - N/A   Clear
2:00 PM 75 °F - 43 °F 21% 30.08 in 22 mi NNW 6.7 mph - -   Partly Cloudy
2:20 PM 75.2 °F - 44.6 °F 34% 30.06 in - NW 10.4 mph - N/A   Clear
2:50 PM 75.2 °F - 37.4 °F 25% 30.06 in 6.2 mi NW 4.6 mph - N/A   Scattered Clouds
3:00 PM 75 °F - 37 °F 15% 30.06 in 31 mi North 8.9 mph - -   Partly Cloudy
3:20 PM 77.0 °F - 35.6 °F 22% 30.04 in 6.2 mi NW 5.8 mph - N/A   Scattered Clouds
3:50 PM 75.2 °F - 37.4 °F 25% 30.04 in 6.2 mi NE 9.2 mph - N/A   Scattered Clouds
4:00 PM 75 °F - 37 °F 15% 30.04 in 31 mi NNE 8.9 mph - -   Partly Cloudy
4:20 PM 73.4 °F - 42.8 °F 33% 30.04 in 6.2 mi North 8.1 mph - N/A   Scattered Clouds
4:50 PM 77.0 °F - 39.2 °F 26% 30.04 in 6.2 mi NW 6.9 mph - N/A   Scattered Clouds
5:20 PM 75.2 °F - 41.0 °F 29% 30.01 in - North 8.1 mph - N/A   Clear
5:50 PM 77.0 °F - 39.2 °F 26% 30.01 in - NNW 4.6 mph - N/A   Clear
6:00 PM 77 °F - 41 °F 17% 30.02 in 34 mi NNE 6.7 mph - -   Scattered Clouds
6:20 PM 75.2 °F - 39.2 °F 27% 30.01 in - NNE 8.1 mph - N/A   Clear
6:50 PM 73.4 °F - 41.0 °F 31% 30.01 in - NE 6.9 mph - N/A   Clear
7:00 PM 73 °F - 42 °F 22% 30.01 in 31 mi NE 8.9 mph - -   Scattered Clouds
7:20 PM 75.2 °F - 41.0 °F 29% 30.01 in - NE 8.1 mph - N/A   Clear
7:50 PM 73.4 °F - 42.8 °F 33% 30.01 in - NE 8.1 mph - N/A   Clear
8:00 PM 72 °F - 44 °F 25% 30.01 in 31 mi ENE 8.9 mph - -   Mostly Cloudy
8:20 PM 71.6 °F - 42.8 °F 35% 30.01 in - NE 9.2 mph - N/A   Clear
8:50 PM 69.8 °F - 42.8 °F 38% 30.01 in - NE 9.2 mph - N/A   Clear
9:00 PM 69 °F - 43 °F 28% 30.02 in 31 mi ENE 6.7 mph - -   Partly Cloudy
9:20 PM 69.8 °F - 42.8 °F 38% 30.01 in - NNE 8.1 mph - N/A   Clear
9:50 PM 68.0 °F - 44.6 °F 43% 30.01 in - NNE 6.9 mph - N/A   Clear
10:00 PM 67 °F - 44 °F 31% 30.03 in 31 mi NE 6.7 mph - -   Partly Cloudy
10:20 PM 66.2 °F - 44.6 °F 46% 30.01 in - ENE 5.8 mph - N/A   Clear
10:50 PM 62.6 °F - 44.6 °F 52% 30.01 in - NE 4.6 mph - N/A   Clear
11:20 PM 64.4 °F - 44.6 °F 49% 30.01 in - NE 5.8 mph - N/A   Clear
11:50 PM 62.6 °F - 46.4 °F 55% 30.01 in - ENE 6.9 mph - N/A   Clear